Regional Weather Roundup
Issued by NWS

Home | Current Version | Previous Version | Graphics & Text | Print | Product List | Glossary On
Versions: 1 2 3 4 5 6 7 8 9 10 11 12 13 14 15 16 17 18 19 20 21 22 23 24 25 26 27 28 29 30 31 32 33 34 35 36 37 38 39 40 41 42 43 44 45 46 47 48 49 50
000
ASUS45 KBOI 270310
RWRID
WEATHER ROUNDUP FOR IDAHO
NATIONAL WEATHER SERVICE BOISE ID
800 PM MST WED NOV 26 2014

NOTE: "FAIR" INDICATES FEW OR NO CLOUDS BELOW 12000 FEET
WITH NO SIGNIFICANT WEATHER AND/OR OBSTRUCTIONS TO VISIBILITY

IDZ012-014-270400-
SOUTHWEST IDAHO


CITY           SKY/WX    TMP DP  RH WIND       PRES   REMARKS
BOISE          CLOUDY    48  38  68 S5        30.20F
CALDWELL       NOT AVBL
MOUNTAIN HOME  MOCLDY    42  42 100 E9        30.21F
$$

IDZ016-017-270400-
SOUTHCENTRAL IDAHO


CITY           SKY/WX    TMP DP  RH WIND       PRES   REMARKS
BURLEY         CLEAR     36  32  85 CALM      30.26F
JEROME         PTCLDY    43  35  73 E9        30.26S
TWIN FALLS     PTCLDY    49  31  49 S14       30.25F
$$

IDZ019>023-270400-
SOUTHEAST IDAHO


CITY           SKY/WX    TMP DP  RH WIND       PRES   REMARKS
IDAHO FALLS    CLOUDY    44  32  62 SW7       30.26S
POCATELLO      CLEAR     48  33  56 S12       30.28F
REXBURG        CLOUDY    43  31  62 S12       30.25F
$$

IDZ006-010-011-018-031-032-270400-
CENTRAL IDAHO MOUNTAINS


CITY           SKY/WX    TMP DP  RH WIND       PRES   REMARKS
MCCALL         CLOUDY    33  32  96 CALM      30.22S FOG
HAILEY         CLEAR     36  30  80 W8        30.29S WCI  29
STANLEY          N/A     33  25  72 S3        30.27F
SALMON         CLOUDY    30  28  93 NW5       30.17F VSB<1/4 WCI  25
CHALLIS        CLOUDY    40  27  59 CALM      30.19F
$$

IDZ002-004-006-007-026-270400-
NORTHERN IDAHO


CITY           SKY/WX    TMP DP  RH WIND       PRES   REMARKS
LEWISTON       CLOUDY    43  42  97 CALM      30.07F FOG
LOWELL           N/A     41  39  93 CALM      30.18F
COEUR D`ALENE  CLOUDY    37  37 100 NE3       30.04F
MULLAN PASS    CLOUDY    34  34 100 SW9       30.06F FOG     WCI  27
$$



USA.gov is the U.S. government's official web portal to all federal, state and local government web resources and services.